Location: Anuling
(14.1239°N, 120.8922°E)
Time: 12:54:35
(UTC+00:00)

Cosmos 2218 Rocket - Pass Details

Date: 14 April 2026
Orbit: 955 x 1005 km, 82.9° (Epoch: 11 May)

Event Time Altitude Azimuth Distance (km) Brightness Sun altitude
Exits shadow 12:38:14 50° 310° (NW) 1,201 4.6 -35.4°
Drops below altitude 10° 12:43:13 10° 352° (N) 2,680 6.6 -36.5°
Sets 12:45:45 0° 357° (N) 3,624 7.3 -37.1°
